CW6734 Weather Reports


Display with metric or nautical units.
time (UTC)temp
F
wind
direction
speed
MPH
gust
MPH
rain 1hr
in
rain 24hr
in
rain mn
in
humidity
%
barometer
mb
20180819213639 79 57 0.0 8.0 0.00 0.10 0.00 62 1014.8
20180819213326 79 57 0.0 8.0 0.00 0.10 0.00 65 1014.8
20180819213023 79 44 0.0 8.0 0.00 0.10 0.00 62 1014.8
20180819212406 78 44 0.0 8.0 0.00 0.10 0.00 60 1014.8
20180819211757 79 107 0.0 2.0 0.00 0.10 0.00 60 1014.8
20180819211445 79 47 0.0 1.0 0.00 0.10 0.00 63 1014.8
20180819210830 78 74 0.0 3.0 0.00 0.10 0.00 59 1014.8
20180819205904 78 51 0.0 3.0 0.00 0.10 0.00 62 1014.8
20180819205259 78 5 0.0 2.0 0.00 0.10 0.00 60 1014.9
20180819204954 79 56 0.0 2.0 0.00 0.10 0.00 62 1014.9
20180819204642 79 5 0.0 5.0 0.00 0.10 0.00 62 1014.9
20180819204331 79 67 0.0 5.0 0.00 0.10 0.00 61 1014.9
20180819203407 78 78 0.0 5.0 0.00 0.10 0.00 60 1014.9
20180819203058 78 44 0.0 5.0 0.00 0.10 0.00 62 1014.9
20180819202746 78 322 0.0 4.0 0.00 0.10 0.00 61 1014.8
20180819202436 78 41 1.0 4.0 0.00 0.10 0.00 58 1014.8
20180819201818 78 5 1.0 4.0 0.00 0.10 0.00 59 1014.7
20180819201522 78 69 1.0 4.0 0.00 0.10 0.00 57 1014.8
20180819200317 78 9 0.0 3.0 0.00 0.10 0.00 63 1014.9
20180819200023 78 5 0.0 0.0 0.00 0.10 0.00 62 1014.9
20180819195419 78 130 1.0 5.0 0.00 0.10 0.00 63 1014.9
20180819195118 78 9 1.0 5.0 0.00 0.10 0.00 64 1014.9
20180819194158 78 355 1.0 5.0 0.00 0.10 0.00 65 1014.9
20180819193850 78 355 1.0 5.0 0.00 0.10 0.00 62 1014.8
20180819193544 78 38 1.0 4.0 0.00 0.10 0.00 66 1014.8
20180819192615 78 33 1.0 4.0 0.00 0.10 0.00 65 1015.0
20180819191955 78 40 0.0 2.0 0.00 0.10 0.00 67 1015.0
20180819191345 78 12 0.0 3.0 0.00 0.10 0.00 66 1015.1
20180819190441 78 44 1.0 6.0 0.00 0.10 0.00 68 1015.1
20180819185833 78 9 1.0 6.0 0.00 0.10 0.00 64 1015.0
20180819185527 78 21 1.0 6.0 0.00 0.10 0.00 65 1015.1
20180819185219 78 160 1.0 6.0 0.00 0.10 0.00 63 1015.1
20180819184907 78 100 1.0 6.0 0.00 0.10 0.00 64 1015.1
20180819184600 78 53 1.0 6.0 0.00 0.10 0.00 68 1015.0
20180819184259 78 112 1.0 6.0 0.00 0.10 0.00 65 1015.0
20180819183948 78 42 1.0 6.0 0.00 0.10 0.00 67 1015.1
20180819183650 78 330 1.0 6.0 0.00 0.10 0.00 61 1015.1
20180819183046 77 64 1.0 4.0 0.00 0.10 0.00 61 1015.2
20180819182448 77 68 1.0 4.0 0.00 0.10 0.00 63 1015.3
20180819182139 77 5 1.0 3.0 0.00 0.10 0.00 63 1015.3
20180819181829 77 336 1.0 3.0 0.00 0.10 0.00 64 1015.3
20180819180600 77 54 0.0 6.0 0.00 0.10 0.00 67 1015.3
20180819180300 77 64 1.0 6.0 0.00 0.10 0.00 66 1015.3
20180819175957 77 70 1.0 6.0 0.00 0.10 0.00 68 1015.3
20180819175341 77 5 1.0 6.0 0.00 0.10 0.00 61 1015.4
20180819175035 77 0 1.0 5.0 0.00 0.10 0.00 64 1015.4
20180819174722 77 56 1.0 5.0 0.00 0.10 0.00 64 1015.4
20180819174417 77 96 1.0 5.0 0.00 0.10 0.00 62 1015.4
20180819173813 76 61 1.0 5.0 0.00 0.10 0.00 62 1015.4
20180819173507 76 49 1.0 5.0 0.00 0.10 0.00 64 1015.4
20180819172858 76 32 1.0 4.0 0.00 0.10 0.00 63 1015.5
20180819172233 76 185 1.0 4.0 0.00 0.10 0.00 67 1015.6
20180819171928 76 57 1.0 6.0 0.00 0.10 0.00 65 1015.5
20180819171619 76 63 1.0 6.0 0.00 0.10 0.00 63 1015.5
20180819170044 76 168 1.0 5.0 0.00 0.10 0.00 69 1015.5
20180819165146 75 57 1.0 5.0 0.00 0.10 0.00 67 1015.6
20180819164845 75 197 1.0 5.0 0.00 0.10 0.00 66 1015.6
20180819164543 75 73 1.0 3.0 0.00 0.10 0.00 73 1015.6
20180819164245 75 165 1.0 3.0 0.00 0.10 0.00 71 1015.6
20180819163318 75 180 1.0 3.0 0.00 0.10 0.00 73 1015.7
20180819162717 75 339 1.0 3.0 0.00 0.10 0.00 73 1015.6
20180819162411 75 32 1.0 3.0 0.00 0.10 0.00 77 1015.6
20180819161759 75 124 1.0 4.0 0.00 0.10 0.00 74 1015.7
20180819161459 75 67 0.0 4.0 0.00 0.10 0.00 79 1015.7
20180819160844 74 73 1.0 5.0 0.00 0.10 0.00 74 1015.7
20180819155633 74 323 1.0 5.0 0.00 0.10 0.00 77 1015.6
20180819154412 74 50 0.0 4.0 0.00 0.10 0.00 79 1015.5
20180819153511 73 155 1.0 4.0 0.00 0.10 0.00 78 1015.6
20180819153209 73 186 1.0 4.0 0.00 0.10 0.00 78 1015.6
20180819152857 72 101 1.0 4.0 0.00 0.10 0.00 81 1015.6
20180819152252 72 38 0.0 3.0 0.00 0.10 0.00 80 1015.7
20180819151345 71 337 1.0 4.0 0.00 0.10 0.00 80 1015.5
20180819150422 71 221 1.0 4.0 0.00 0.10 0.00 82 1015.4
20180819145815 71 31 1.0 4.0 0.00 0.10 0.00 86 1015.4
20180819145514 70 117 0.0 4.0 0.00 0.10 0.00 87 1015.4
20180819144905 70 65 0.0 3.0 0.00 0.10 0.00 88 1015.4
20180819143705 69 19 1.0 3.0 0.00 0.10 0.00 87 1015.3
20180819143352 69 16 1.0 3.0 0.00 0.10 0.00 88 1015.4
20180819142120 68 355 1.0 5.0 0.00 0.10 0.00 88 1015.3
20180819141154 67 32 1.0 4.0 0.00 0.10 0.00 90 1015.1
20180819135626 67 59 1.0 4.0 0.00 0.10 0.00 90 1015.1
20180819135315 67 56 1.0 4.0 0.00 0.10 0.00 90 1015.0
20180819134659 66 45 1.0 3.0 0.00 0.10 0.00 92 1015.0
20180819134346 66 45 1.0 3.0 0.00 0.10 0.00 92 1014.9
20180819134034 66 63 0.0 2.0 0.00 0.10 0.00 92 1014.8
20180819133734 66 11 0.0 3.0 0.00 0.10 0.00 92 1014.9
20180819133125 65 42 0.0 3.0 0.00 0.10 0.00 92 1015.0
20180819132813 65 48 1.0 3.0 0.00 0.10 0.00 92 1015.0
20180819132510 65 51 1.0 3.0 0.00 0.10 0.00 92 1015.0
20180819132208 65 32 0.0 3.0 0.00 0.10 0.00 93 1015.1
20180819131907 65 75 1.0 3.0 0.00 0.10 0.00 93 1015.2
20180819131555 64 44 1.0 3.0 0.00 0.10 0.00 93 1015.2
20180819131242 64 104 1.0 3.0 0.00 0.10 0.00 93 1015.2
20180819130929 64 34 0.0 3.0 0.00 0.10 0.00 93 1015.3
20180819125717 63 38 1.0 3.0 0.00 0.10 0.00 94 1015.3
20180819125102 63 64 0.0 3.0 0.00 0.10 0.00 95 1015.3
20180819124801 63 64 0.0 7.0 0.00 0.10 0.00 95 1015.3
20180819124504 63 74 0.0 7.0 0.00 0.10 0.00 95 1015.3
20180819123853 62 308 1.0 7.0 0.00 0.10 0.00 95 1015.1
20180819123549 62 55 1.0 7.0 0.00 0.10 0.00 95 1014.9
20180819123243 62 60 1.0 7.0 0.00 0.10 0.00 95 1014.9
20180819122937 62 63 1.0 7.0 0.00 0.10 0.00 95 1014.9
20180819121719 62 15 1.0 8.0 0.00 0.10 0.00 95 1014.7
20180819121418 62 60 1.0 8.0 0.00 0.10 0.00 95 1014.7
20180819121105 62 51 1.0 8.0 0.00 0.10 0.00 95 1014.7
20180819120752 62 65 1.0 8.0 0.00 0.10 0.00 95 1014.7
20180819120442 62 59 1.0 7.0 0.00 0.10 0.00 95 1014.6
20180819115528 62 55 1.0 7.0 0.00 0.10 0.00 95 1014.5
20180819114915 61 84 1.0 7.0 0.00 0.10 0.00 95 1014.5
20180819114311 61 63 1.0 4.0 0.00 0.10 0.00 95 1014.4
20180819114002 61 59 1.0 4.0 0.00 0.10 0.00 95 1014.4
20180819113049 61 54 1.0 7.0 0.00 0.10 0.00 95 1014.4
20180819112441 61 52 1.0 7.0 0.00 0.10 0.00 95 1014.3
20180819112139 61 55 1.0 7.0 0.00 0.10 0.00 95 1014.3
20180819111534 61 57 0.0 7.0 0.00 0.10 0.00 95 1014.3
20180819111230 61 82 0.0 7.0 0.00 0.10 0.00 95 1014.3
20180819110627 61 68 1.0 5.0 0.00 0.10 0.00 95 1014.1
20180819110314 61 65 1.0 3.0 0.00 0.10 0.00 95 1014.1
20180819105707 61 61 0.0 3.0 0.00 0.10 0.00 95 1014.0
20180819105353 61 346 0.0 3.0 0.00 0.10 0.00 95 1014.0
20180819104140 61 59 0.0 4.0 0.00 0.10 0.00 95 1013.9
20180819103836 61 61 0.0 4.0 0.00 0.10 0.00 95 1013.9
20180819103528 61 74 1.0 4.0 0.00 0.10 0.00 95 1013.9
20180819102920 62 71 1.0 4.0 0.00 0.10 0.00 94 1013.8
20180819102613 62 65 1.0 3.0 0.00 0.10 0.00 94 1013.7
20180819102301 62 61 0.0 4.0 0.00 0.10 0.00 94 1013.8
20180819101659 62 67 1.0 4.0 0.00 0.10 0.00 94 1013.8
20180819100746 62 51 1.0 5.0 0.00 0.10 0.00 94 1013.7
20180819100436 62 65 1.0 5.0 0.00 0.10 0.00 94 1013.7
20180819100131 62 55 1.0 5.0 0.00 0.10 0.00 94 1013.7
20180819095520 62 49 1.0 5.0 0.00 0.10 0.00 94 1013.6
20180819095218 62 104 1.0 3.0 0.00 0.10 0.00 94 1013.7
20180819094917 62 96 0.0 3.0 0.00 0.10 0.00 94 1013.7
20180819094314 62 71 0.0 4.0 0.00 0.10 0.00 94 1013.6
20180819093653 62 66 1.0 4.0 0.00 0.10 0.00 94 1013.6
20180819093053 62 63 1.0 4.0 0.00 0.10 0.00 93 1013.4
20180819092741 62 74 1.0 4.0 0.00 0.10 0.00 93 1013.4
20180819092438 62 73 1.0 3.0 0.00 0.10 0.00 94 1013.4
20180819091834 62 42 1.0 3.0 0.00 0.10 0.00 94 1013.3
20180819091215 62 52 1.0 3.0 0.00 0.10 0.00 94 1013.3
20180819090902 62 92 1.0 3.0 0.00 0.10 0.00 93 1013.3
20180819090553 62 78 1.0 3.0 0.00 0.10 0.00 93 1013.2
20180819085954 63 52 1.0 3.0 0.00 0.10 0.00 93 1013.1
20180819085042 63 58 0.0 2.0 0.00 0.10 0.00 93 1013.2
20180819084430 63 62 0.0 4.0 0.00 0.10 0.00 93 1013.2
20180819084133 63 62 0.0 4.0 0.00 0.10 0.00 93 1013.2
20180819083832 63 62 1.0 4.0 0.00 0.10 0.00 93 1013.3
20180819083520 63 52 1.0 4.0 0.00 0.10 0.00 93 1013.3
20180819082859 63 40 1.0 3.0 0.00 0.10 0.00 93 1013.3
20180819082557 63 55 1.0 3.0 0.00 0.10 0.00 93 1013.3
20180819082250 63 25 1.0 3.0 0.00 0.10 0.00 93 1013.2
20180819081347 63 56 1.0 4.0 0.00 0.10 0.00 92 1013.4
20180819081034 63 84 1.0 4.0 0.00 0.10 0.00 92 1013.3
20180819080723 63 61 1.0 4.0 0.00 0.10 0.00 92 1013.4
20180819080412 63 61 1.0 4.0 0.00 0.10 0.00 92 1013.3
20180819080105 63 59 1.0 4.0 0.00 0.10 0.00 92 1013.3
20180819075800 63 55 1.0 4.0 0.00 0.10 0.00 92 1013.2
20180819075150 63 44 1.0 3.0 0.00 0.10 0.00 93 1013.2
20180819074847 63 67 0.0 3.0 0.00 0.10 0.00 93 1013.2
20180819073932 63 34 0.0 3.0 0.00 0.10 0.00 92 1013.1
20180819073327 64 66 0.0 3.0 0.00 0.10 0.00 92 1013.2
20180819073029 64 11 0.0 3.0 0.00 0.10 0.00 92 1013.2
20180819072722 64 61 1.0 3.0 0.00 0.10 0.00 92 1013.2
20180819072412 64 36 1.0 3.0 0.00 0.10 0.00 92 1013.2
20180819072100 64 51 1.0 3.0 0.00 0.10 0.00 92 1013.2
20180819071451 64 56 1.0 3.0 0.00 0.10 0.00 92 1013.1
20180819071151 64 53 1.0 3.0 0.00 0.10 0.00 92 1013.1
20180819070839 64 67 1.0 3.0 0.00 0.10 0.00 92 1013.1
20180819070540 64 59 1.0 3.0 0.00 0.10 0.00 93 1013.1
20180819070243 64 56 1.0 3.0 0.00 0.10 0.00 93 1013.2
20180819064705 64 62 0.0 0.0 0.00 0.10 0.00 92 1013.2
20180819064057 64 62 0.0 2.0 0.00 0.10 0.00 92 1013.1
20180819063430 64 62 0.0 4.0 0.00 0.10 0.00 92 1013.1
20180819062524 64 87 1.0 4.0 0.00 0.10 0.00 92 1013.1
20180819061905 64 59 1.0 4.0 0.00 0.10 0.00 92 1013.1
20180819061552 64 58 1.0 4.0 0.00 0.10 0.00 92 1013.1
20180819061251 64 62 1.0 3.0 0.00 0.10 0.00 92 1013.1
20180819060941 64 51 1.0 3.0 0.00 0.10 0.00 92 1013.1
20180819060333 64 40 1.0 3.0 0.00 0.10 0.00 92 1013.1
20180819060037 64 62 1.0 3.0 0.00 0.10 0.00 92 1013.1
20180819055741 64 59 1.0 3.0 0.00 0.10 0.00 92 1013.2
20180819055443 64 65 0.0 3.0 0.00 0.10 0.00 92 1013.2
20180819054833 64 61 0.0 5.0 0.00 0.10 0.00 92 1013.1
20180819054535 64 61 1.0 5.0 0.00 0.10 0.00 92 1013.2
20180819053917 65 53 1.0 5.0 0.00 0.10 0.00 92 1013.2
20180819053318 65 65 1.0 5.0 0.00 0.10 0.00 92 1013.2
20180819053011 65 55 1.0 3.0 0.00 0.10 0.00 92 1013.2
20180819052708 65 61 1.0 3.0 0.00 0.10 0.00 92 1013.2
20180819052406 65 57 1.0 3.0 0.00 0.10 0.00 92 1013.2
20180819052100 65 59 1.0 3.0 0.00 0.10 0.00 92 1013.2
20180819051444 65 64 0.0 3.0 0.00 0.10 0.00 93 1013.3
20180819051132 65 74 0.0 2.0 0.00 0.10 0.00 93 1013.3
20180819050828 65 74 0.0 2.0 0.00 0.10 0.00 93 1013.3
20180819050518 65 75 0.0 2.0 0.00 0.10 0.00 93 1013.3
20180819045902 65 75 0.0 2.0 0.00 0.10 0.00 94 1013.2
20180819045250 65 72 0.0 2.0 0.00 0.10 0.00 94 1013.2
20180819044950 65 80 0.0 2.0 0.00 0.10 0.00 94 1013.1
20180819043102 65 54 0.0 1.0 0.00 0.10 0.00 94 1013.3
20180819042141 65 54 0.0 0.0 0.00 0.10 0.00 94 1013.3
20180819041843 65 54 0.0 1.0 0.00 0.10 0.00 93 1013.3
20180819041228 66 54 0.0 2.0 0.00 0.10 0.00 93 1013.2
20180819040926 66 54 0.0 2.0 0.00 0.10 0.00 93 1013.2
20180819040616 66 51 0.0 2.0 0.00 0.10 0.00 93 1013.2
20180819040315 66 35 0.0 2.0 0.00 0.10 0.00 93 1013.2
20180819040002 66 35 0.0 2.0 0.00 0.10 0.10 93 1013.2
20180819035651 66 35 0.0 4.0 0.00 0.10 0.10 93 1013.2
20180819035354 66 35 0.0 4.0 0.00 0.10 0.10 93 1013.2
20180819035054 66 35 0.0 4.0 0.00 0.10 0.10 93 1013.2
20180819034435 66 54 0.0 4.0 0.00 0.10 0.10 93 1013.2
20180819034135 66 97 1.0 4.0 0.00 0.10 0.10 93 1013.2
20180819032305 67 59 0.0 3.0 0.00 0.10 0.10 92 1013.0
20180819031346 67 73 1.0 4.0 0.00 0.10 0.10 92 1013.0
20180819030732 67 56 1.0 4.0 0.00 0.10 0.10 92 1013.0
20180819030425 67 38 1.0 4.0 0.00 0.10 0.10 92 1013.0
20180819025812 68 54 1.0 4.0 0.00 0.10 0.10 93 1013.0
20180819025507 68 52 1.0 4.0 0.00 0.10 0.10 93 1013.0
20180819024548 68 56 1.0 4.0 0.00 0.10 0.10 94 1013.0
20180819023949 68 54 1.0 4.0 0.00 0.10 0.10 94 1012.9
20180819022718 68 51 0.0 1.0 0.00 0.10 0.10 95 1012.7
20180819021806 68 44 0.0 1.0 0.00 0.10 0.10 95 1012.8
20180819021507 68 5 0.0 0.0 0.00 0.10 0.10 95 1012.7
20180819021210 68 5 0.0 0.0 0.00 0.10 0.10 95 1012.7
20180819020857 68 266 0.0 0.0 0.00 0.10 0.10 95 1012.7
20180819020304 68 250 0.0 0.0 0.00 0.10 0.10 95 1012.7
20180819015955 68 250 0.0 0.0 0.00 0.10 0.10 95 1012.6
20180819015655 68 250 0.0 0.0 0.00 0.10 0.10 95 1012.7
20180819015346 68 250 0.0 0.0 0.00 0.10 0.10 95 1012.6
20180819014724 68 250 0.0 0.0 0.00 0.09 0.10 95 1012.6
20180819014114 68 250 0.0 0.0 0.00 0.09 0.10 95 1012.6
20180819013807 68 250 0.0 0.0 0.00 0.09 0.10 95 1012.6
20180819013507 68 250 0.0 0.0 0.00 0.09 0.10 95 1012.6
20180819013203 68 250 0.0 0.0 0.00 0.09 0.10 95 1012.6
20180819012856 68 250 0.0 0.0 0.00 0.09 0.10 95 1012.5
20180819012235 68 250 0.0 0.0 0.00 0.09 0.10 95 1012.4
20180819011626 68 250 0.0 0.0 0.00 0.09 0.10 95 1012.4
20180819011327 68 250 0.0 0.0 0.00 0.09 0.10 95 1012.3
20180819005433 68 250 0.0 0.0 0.00 0.09 0.10 94 1012.1
20180819005130 68 250 0.0 0.0 0.00 0.09 0.10 94 1012.0
20180819004832 68 250 0.0 0.0 0.00 0.09 0.10 94 1012.0
20180819004209 68 250 0.0 0.0 0.00 0.09 0.10 94 1011.9
20180819003902 68 250 0.0 0.0 0.00 0.09 0.10 94 1011.9
20180819001725 69 250 0.0 0.0 0.00 0.09 0.10 93 1011.9
20180819001416 69 20 0.0 0.0 0.00 0.09 0.10 93 1011.9
20180819000213 70 20 0.0 0.0 0.00 0.09 0.10 93 1011.9
20180818235605 70 20 0.0 0.0 0.00 0.09 0.10 93 1011.8
20180818235304 70 20 0.0 0.0 0.00 0.09 0.10 93 1011.9
20180818234350 70 20 0.0 0.0 0.00 0.09 0.10 94 1011.9
20180818234045 70 20 0.0 0.0 0.00 0.09 0.10 94 1011.9
20180818232801 71 20 0.0 0.0 0.00 0.09 0.10 94 1011.9
20180818232442 70 20 0.0 0.0 0.00 0.09 0.10 93 1011.9
20180818232134 70 20 0.0 0.0 0.00 0.09 0.10 93 1011.9
20180818231523 70 20 0.0 0.0 0.00 0.09 0.10 93 1011.8
20180818225947 71 20 0.0 0.0 0.00 0.09 0.10 92 1011.8
20180818225634 71 20 0.0 0.0 0.04 0.09 0.10 92 1011.9
20180818225321 71 20 0.0 0.0 0.05 0.09 0.10 91 1011.9
20180818223503 71 20 0.0 0.0 0.16 0.08 0.08 88 1012.1
20180818222848 72 61 1.0 5.0 0.00 0.00 0.00 86 1012.1
20180818221931 74 321 1.0 5.0 0.00 0.00 0.00 83 1012.1
20180818221631 74 54 1.0 7.0 0.00 0.00 0.00 82 1012.1
20180818221027 75 38 1.0 7.0 0.00 0.00 0.00 81 1011.8
20180818220723 76 5 2.0 7.0 0.00 0.00 0.00 80 1011.7
20180818220417 76 58 1.0 7.0 0.00 0.00 0.00 78 1011.7
20180818215447 78 43 1.0 3.0 0.00 0.00 0.00 73 1011.3
20180818215145 79 42 1.0 3.0 0.00 0.00 0.00 72 1011.3